| time (UTC) | temp C | wind direction | speed KPH | gust KPH | rain 1hr cm | rain 24hr cm | rain mn cm | humidity % | barometer mb |
| 20260509005731 | 17 | 192 | 0.0 | 1.6 | 0.00 | 0.00 | 0.00 | 83 | 1009.3 |
| 20260509005231 | 17 | 192 | 0.0 | 1.6 | 0.00 | 0.00 | 0.00 | 82 | 1009.3 |
| 20260509004231 | 17 | 221 | 1.6 | 3.2 | 0.00 | 0.00 | 0.00 | 81 | 1009.4 |
| 20260509003231 | 18 | 174 | 1.6 | 4.8 | 0.00 | 0.00 | 0.00 | 80 | 1009.2 |
| 20260509002729 | 18 | 190 | 3.2 | 4.8 | 0.00 | 0.00 | 0.00 | 79 | 1009.2 |
| 20260509002229 | 18 | 153 | 3.2 | 8.0 | 0.00 | 0.00 | 0.00 | 79 | 1008.8 |
| 20260509001729 | 18 | 172 | 3.2 | 6.4 | 0.00 | 0.00 | 0.00 | 78 | 1008.9 |
| 20260509001229 | 18 | 169 | 3.2 | 8.0 | 0.00 | 0.00 | 0.00 | 77 | 1009.0 |
| 20260509000743 | 18 | 163 | 3.2 | 6.4 | 0.00 | 0.00 | 0.00 | 77 | 1009.2 |
| 20260509000229 | 19 | 155 | 1.6 | 8.0 | 0.00 | 0.00 | 0.00 | 77 | 1009.2 |
| 20260508235731 | 19 | 238 | 1.6 | 3.2 | 0.00 | 0.00 | 0.00 | 76 | 1009.3 |
| 20260508235229 | 19 | 204 | 1.6 | 6.4 | 0.00 | 0.00 | 0.00 | 75 | 1009.4 |
| 20260508234729 | 19 | 137 | 1.6 | 6.4 | 0.00 | 0.00 | 0.00 | 77 | 1009.5 |
| 20260508234243 | 19 | 205 | 1.6 | 4.8 | 0.00 | 0.00 | 0.00 | 75 | 1009.6 |
| 20260508233743 | 19 | 217 | 1.6 | 3.2 | 0.00 | 0.00 | 0.00 | 75 | 1009.6 |
| 20260508233326 | 19 | 160 | 3.2 | 8.0 | 0.00 | 0.00 | 0.00 | 74 | 1009.7 |
| 20260508232733 | 19 | 159 | 3.2 | 8.0 | 0.00 | 0.00 | 0.00 | 74 | 1009.6 |
| 20260508232229 | 20 | 179 | 3.2 | 11.3 | 0.00 | 0.00 | 0.00 | 72 | 1009.8 |
| 20260508231731 | 20 | 200 | 3.2 | 9.7 | 0.00 | 0.00 | 0.00 | 72 | 1009.7 |
| 20260508231229 | 20 | 248 | 3.2 | 8.0 | 0.00 | 0.00 | 0.00 | 71 | 1009.7 |
| 20260508230729 | 20 | 183 | 3.2 | 6.4 | 0.00 | 0.00 | 0.00 | 71 | 1009.7 |
| 20260508230301 | 20 | 226 | 4.8 | 9.7 | 0.00 | 0.00 | 0.00 | 71 | 1009.7 |
| 20260508225731 | 20 | 133 | 4.8 | 14.5 | 0.00 | 0.00 | 0.00 | 69 | 1009.6 |
| 20260508225231 | 21 | 118 | 4.8 | 8.0 | 0.00 | 0.00 | 0.00 | 70 | 1009.8 |
| 20260508224733 | 21 | 124 | 3.2 | 12.9 | 0.00 | 0.00 | 0.00 | 71 | 1009.7 |
| 20260508224229 | 20 | 203 | 3.2 | 8.0 | 0.00 | 0.00 | 0.00 | 72 | 1009.8 |
| 20260508223731 | 20 | 197 | 4.8 | 9.7 | 0.00 | 0.00 | 0.00 | 74 | 1009.7 |
| 20260508223231 | 20 | 152 | 4.8 | 11.3 | 0.00 | 0.00 | 0.00 | 72 | 1009.7 |
| 20260508222729 | 20 | 159 | 4.8 | 12.9 | 0.00 | 0.00 | 0.00 | 72 | 1009.8 |
| 20260508222229 | 20 | 168 | 3.2 | 9.7 | 0.00 | 0.00 | 0.00 | 74 | 1009.8 |
| 20260508221729 | 20 | 253 | 3.2 | 3.2 | 0.00 | 0.00 | 0.00 | 72 | 1009.6 |
| 20260508221237 | 20 | 221 | 4.8 | 11.3 | 0.00 | 0.00 | 0.00 | 72 | 1009.6 |
| 20260508220729 | 20 | 187 | 4.8 | 11.3 | 0.00 | 0.00 | 0.00 | 72 | 1009.6 |
| 20260508220229 | 20 | 147 | 4.8 | 8.0 | 0.00 | 0.00 | 0.00 | 72 | 1009.7 |
| 20260508215731 | 20 | 184 | 4.8 | 9.7 | 0.00 | 0.00 | 0.00 | 71 | 1009.6 |
| 20260508215237 | 20 | 248 | 4.8 | 12.9 | 0.00 | 0.00 | 0.00 | 72 | 1009.8 |
| 20260508214729 | 20 | 155 | 6.4 | 14.5 | 0.00 | 0.00 | 0.00 | 71 | 1009.9 |
| 20260508214243 | 20 | 157 | 4.8 | 14.5 | 0.00 | 0.00 | 0.00 | 70 | 1009.9 |
| 20260508213729 | 20 | 175 | 3.2 | 8.0 | 0.00 | 0.00 | 0.00 | 71 | 1009.9 |
| 20260508213229 | 20 | 261 | 3.2 | 6.4 | 0.00 | 0.00 | 0.00 | 71 | 1010.0 |
| 20260508212733 | 20 | 226 | 4.8 | 17.7 | 0.00 | 0.00 | 0.00 | 69 | 1010.2 |
| 20260508212231 | 20 | 191 | 4.8 | 12.9 | 0.00 | 0.00 | 0.00 | 70 | 1010.4 |
| 20260508211731 | 21 | 240 | 4.8 | 12.9 | 0.00 | 0.00 | 0.00 | 69 | 1010.5 |
| 20260508211229 | 21 | 191 | 4.8 | 14.5 | 0.00 | 0.00 | 0.00 | 69 | 1010.5 |
| 20260508210729 | 21 | 338 | 4.8 | 11.3 | 0.00 | 0.00 | 0.00 | 69 | 1010.5 |
| 20260508210229 | 21 | 180 | 6.4 | 12.9 | 0.00 | 0.00 | 0.00 | 68 | 1010.4 |
| 20260508205729 | 21 | 186 | 6.4 | 14.5 | 0.00 | 0.00 | 0.00 | 67 | 1010.5 |
| 20260508205229 | 22 | 143 | 6.4 | 17.7 | 0.00 | 0.00 | 0.00 | 69 | 1010.4 |
| 20260508204732 | 22 | 187 | 4.8 | 14.5 | 0.00 | 0.00 | 0.00 | 65 | 1010.4 |
| 20260508204237 | 22 | 179 | 4.8 | 12.9 | 0.00 | 0.00 | 0.00 | 65 | 1010.5 |
| 20260508203729 | 22 | 247 | 3.2 | 9.7 | 0.00 | 0.00 | 0.00 | 66 | 1010.6 |
| 20260508203229 | 22 | 260 | 3.2 | 9.7 | 0.00 | 0.00 | 0.00 | 67 | 1010.6 |
| 20260508202729 | 22 | 136 | 4.8 | 8.0 | 0.00 | 0.00 | 0.00 | 68 | 1010.8 |
| 20260508202229 | 21 | 137 | 4.8 | 17.7 | 0.00 | 0.00 | 0.00 | 68 | 1010.8 |
| 20260508201729 | 21 | 221 | 6.4 | 12.9 | 0.00 | 0.00 | 0.00 | 66 | 1010.9 |
| 20260508201229 | 21 | 189 | 4.8 | 12.9 | 0.00 | 0.00 | 0.00 | 66 | 1010.8 |
| 20260508200729 | 21 | 164 | 4.8 | 12.9 | 0.00 | 0.00 | 0.00 | 64 | 1010.9 |
| 20260508200320 | 21 | 233 | 6.4 | 9.7 | 0.00 | 0.00 | 0.00 | 65 | 1011.0 |
| 20260508195729 | 21 | 175 | 8.0 | 16.1 | 0.00 | 0.00 | 0.00 | 64 | 1011.1 |
| 20260508195229 | 21 | 155 | 8.0 | 22.5 | 0.00 | 0.00 | 0.00 | 65 | 1011.2 |
| 20260508194729 | 21 | 75 | 6.4 | 17.7 | 0.00 | 0.00 | 0.00 | 67 | 1011.0 |
| 20260508194229 | 21 | 149 | 6.4 | 16.1 | 0.00 | 0.00 | 0.00 | 66 | 1011.1 |
| 20260508193730 | 21 | 120 | 6.4 | 14.5 | 0.00 | 0.00 | 0.00 | 68 | 1011.1 |
| 20260508193230 | 21 | 188 | 4.8 | 6.4 | 0.00 | 0.00 | 0.00 | 68 | 1011.1 |
| 20260508192730 | 21 | 203 | 4.8 | 16.1 | 0.00 | 0.00 | 0.00 | 66 | 1011.1 |
| 20260508192230 | 21 | 150 | 4.8 | 12.9 | 0.00 | 0.00 | 0.00 | 64 | 1011.3 |
| 20260508191730 | 22 | 226 | 3.2 | 8.0 | 0.00 | 0.00 | 0.00 | 63 | 1011.3 |
| 20260508191230 | 21 | 207 | 3.2 | 8.0 | 0.00 | 0.00 | 0.00 | 66 | 1011.3 |
| 20260508190820 | 21 | 166 | 4.8 | 9.7 | 0.00 | 0.00 | 0.00 | 65 | 1011.3 |
| 20260508190237 | 21 | 193 | 4.8 | 11.3 | 0.00 | 0.00 | 0.00 | 64 | 1011.5 |
| 20260508185737 | 21 | 119 | 4.8 | 12.9 | 0.00 | 0.00 | 0.00 | 64 | 1011.3 |
| 20260508185230 | 20 | 217 | 4.8 | 14.5 | 0.00 | 0.00 | 0.00 | 66 | 1011.5 |
| 20260508184730 | 20 | 193 | 4.8 | 11.3 | 0.00 | 0.00 | 0.00 | 64 | 1011.4 |
| 20260508184230 | 20 | 155 | 4.8 | 14.5 | 0.00 | 0.00 | 0.00 | 66 | 1011.6 |
| 20260508183730 | 20 | 233 | 4.8 | 11.3 | 0.00 | 0.00 | 0.00 | 66 | 1011.6 |
| 20260508183230 | 20 | 216 | 6.4 | 11.3 | 0.00 | 0.00 | 0.00 | 65 | 1011.4 |
| 20260508182730 | 20 | 182 | 4.8 | 9.7 | 0.00 | 0.00 | 0.00 | 65 | 1011.8 |
| 20260508182232 | 20 | 219 | 4.8 | 9.7 | 0.00 | 0.00 | 0.00 | 66 | 1011.9 |
| 20260508181730 | 20 | 155 | 4.8 | 11.3 | 0.00 | 0.00 | 0.00 | 64 | 1012.1 |
| 20260508181230 | 21 | 259 | 4.8 | 9.7 | 0.00 | 0.00 | 0.00 | 64 | 1012.2 |
| 20260508180732 | 21 | 181 | 6.4 | 14.5 | 0.00 | 0.00 | 0.00 | 66 | 1012.2 |
| 20260508180230 | 21 | 144 | 3.2 | 12.9 | 0.00 | 0.00 | 0.00 | 65 | 1012.3 |
| 20260508175730 | 21 | 300 | 3.2 | 6.4 | 0.00 | 0.00 | 0.00 | 65 | 1012.4 |
| 20260508175230 | 21 | 222 | 4.8 | 12.9 | 0.00 | 0.00 | 0.00 | 62 | 1012.3 |
| 20260508174730 | 21 | 194 | 4.8 | 11.3 | 0.00 | 0.00 | 0.00 | 61 | 1012.2 |
| 20260508174231 | 21 | 144 | 3.2 | 8.0 | 0.00 | 0.00 | 0.00 | 63 | 1012.5 |
| 20260508173734 | 21 | 165 | 3.2 | 11.3 | 0.00 | 0.00 | 0.00 | 62 | 1012.5 |
| 20260508173230 | 21 | 146 | 3.2 | 8.0 | 0.00 | 0.00 | 0.00 | 62 | 1012.7 |
| 20260508172743 | 21 | 116 | 3.2 | 6.4 | 0.00 | 0.00 | 0.00 | 58 | 1012.9 |
| 20260508172230 | 21 | 240 | 4.8 | 8.0 | 0.00 | 0.00 | 0.00 | 61 | 1013.1 |
| 20260508171730 | 21 | 205 | 4.8 | 9.7 | 0.00 | 0.00 | 0.00 | 58 | 1013.1 |
| 20260508171230 | 21 | 235 | 4.8 | 9.7 | 0.00 | 0.00 | 0.00 | 64 | 1013.1 |
| 20260508170756 | 21 | 257 | 4.8 | 11.3 | 0.00 | 0.00 | 0.00 | 63 | 1013.2 |
| 20260508170321 | 21 | 183 | 4.8 | 12.9 | 0.00 | 0.00 | 0.00 | 62 | 1013.0 |
| 20260508165736 | 20 | 132 | 3.2 | 12.9 | 0.00 | 0.00 | 0.00 | 65 | 1013.1 |
| 20260508165230 | 20 | 158 | 3.2 | 8.0 | 0.00 | 0.00 | 0.00 | 64 | 1013.3 |
| 20260508164730 | 20 | 48 | 4.8 | 8.0 | 0.00 | 0.00 | 0.00 | 63 | 1013.2 |
| 20260508164230 | 20 | 171 | 4.8 | 12.9 | 0.00 | 0.00 | 0.00 | 61 | 1013.1 |
| 20260508163730 | 21 | 195 | 3.2 | 14.5 | 0.00 | 0.00 | 0.00 | 61 | 1013.1 |
| 20260508163230 | 20 | 103 | 4.8 | 8.0 | 0.00 | 0.00 | 0.00 | 62 | 1013.1 |
| 20260508162749 | 20 | 184 | 4.8 | 12.9 | 0.00 | 0.00 | 0.00 | 61 | 1013.1 |
| 20260508162232 | 20 | 130 | 4.8 | 12.9 | 0.00 | 0.00 | 0.00 | 64 | 1013.2 |
| 20260508161730 | 20 | 160 | 4.8 | 12.9 | 0.00 | 0.00 | 0.00 | 62 | 1013.4 |
| 20260508161249 | 20 | 128 | 4.8 | 12.9 | 0.00 | 0.00 | 0.00 | 62 | 1013.5 |
| 20260508160730 | 20 | 127 | 4.8 | 12.9 | 0.00 | 0.00 | 0.00 | 62 | 1013.5 |
| 20260508160230 | 20 | 180 | 3.2 | 11.3 | 0.00 | 0.00 | 0.00 | 63 | 1013.5 |
| 20260508155743 | 20 | 148 | 3.2 | 9.7 | 0.00 | 0.00 | 0.00 | 66 | 1013.7 |
| 20260508155232 | 20 | 113 | 4.8 | 9.7 | 0.00 | 0.00 | 0.00 | 65 | 1013.7 |
| 20260508154732 | 20 | 141 | 6.4 | 11.3 | 0.00 | 0.00 | 0.00 | 65 | 1014.0 |
| 20260508154244 | 20 | 210 | 6.4 | 14.5 | 0.00 | 0.00 | 0.00 | 65 | 1014.1 |
| 20260508153730 | 20 | 185 | 4.8 | 9.7 | 0.00 | 0.00 | 0.00 | 67 | 1014.2 |
| 20260508153232 | 20 | 149 | 3.2 | 9.7 | 0.00 | 0.00 | 0.00 | 66 | 1014.0 |
| 20260508152756 | 20 | 353 | 3.2 | 6.4 | 0.00 | 0.00 | 0.00 | 66 | 1014.1 |
| 20260508152230 | 20 | 161 | 3.2 | 9.7 | 0.00 | 0.00 | 0.00 | 65 | 1014.0 |
| 20260508151730 | 20 | 159 | 3.2 | 9.7 | 0.00 | 0.00 | 0.00 | 67 | 1014.1 |
| 20260508151234 | 20 | 187 | 4.8 | 11.3 | 0.00 | 0.00 | 0.00 | 67 | 1014.4 |
| 20260508150732 | 20 | 189 | 4.8 | 11.3 | 0.00 | 0.00 | 0.00 | 67 | 1014.5 |
| 20260508150230 | 20 | 142 | 4.8 | 11.3 | 0.00 | 0.00 | 0.00 | 69 | 1014.5 |
| 20260508145732 | 20 | 225 | 3.2 | 12.9 | 0.00 | 0.00 | 0.00 | 66 | 1014.8 |
| 20260508145326 | 19 | 148 | 4.8 | 4.8 | 0.00 | 0.00 | 0.00 | 69 | 1014.5 |
| 20260508144756 | 18 | 117 | 4.8 | 11.3 | 0.00 | 0.00 | 0.00 | 69 | 1014.6 |
| 20260508144239 | 18 | 176 | 3.2 | 6.4 | 0.00 | 0.00 | 0.00 | 70 | 1014.6 |
| 20260508143730 | 18 | 128 | 4.8 | 9.7 | 0.00 | 0.00 | 0.00 | 71 | 1014.7 |
| 20260508143302 | 18 | 164 | 4.8 | 11.3 | 0.00 | 0.00 | 0.00 | 71 | 1014.7 |
| 20260508142730 | 18 | 158 | 4.8 | 12.9 | 0.00 | 0.00 | 0.00 | 71 | 1014.7 |
| 20260508142230 | 17 | 195 | 4.8 | 14.5 | 0.00 | 0.00 | 0.00 | 72 | 1014.8 |
| 20260508141732 | 17 | 153 | 6.4 | 12.9 | 0.00 | 0.00 | 0.00 | 72 | 1014.8 |
| 20260508141234 | 17 | 185 | 6.4 | 12.9 | 0.00 | 0.00 | 0.00 | 72 | 1014.8 |
| 20260508140730 | 17 | 179 | 3.2 | 9.7 | 0.00 | 0.00 | 0.00 | 73 | 1014.6 |
| 20260508140232 | 17 | 107 | 3.2 | 8.0 | 0.00 | 0.00 | 0.00 | 77 | 1014.6 |
| 20260508135742 | 17 | 85 | 3.2 | 9.7 | 0.00 | 0.00 | 0.00 | 75 | 1014.6 |
| 20260508135230 | 17 | 161 | 3.2 | 9.7 | 0.00 | 0.00 | 0.00 | 77 | 1014.7 |
| 20260508134730 | 16 | 198 | 4.8 | 9.7 | 0.00 | 0.00 | 0.00 | 77 | 1014.8 |
| 20260508134230 | 16 | 147 | 4.8 | 9.7 | 0.00 | 0.00 | 0.00 | 75 | 1014.9 |
| 20260508133840 | 16 | 210 | 3.2 | 11.3 | 0.00 | 0.00 | 0.00 | 76 | 1014.9 |
| 20260508133733 | 16 | 210 | 3.2 | 11.3 | 0.00 | 0.00 | 0.00 | 76 | 1014.9 |
| 20260508133232 | 16 | 178 | 4.8 | 9.7 | 0.00 | 0.00 | 0.00 | 76 | 1014.8 |
| 20260508132732 | 16 | 194 | 3.2 | 11.3 | 0.00 | 0.00 | 0.00 | 76 | 1014.8 |
| 20260508132230 | 16 | 148 | 1.6 | 3.2 | 0.00 | 0.00 | 0.00 | 79 | 1014.8 |
| 20260508131755 | 15 | 146 | 3.2 | 6.4 | 0.00 | 0.00 | 0.00 | 79 | 1014.8 |
| 20260508131400 | 15 | 185 | 1.6 | 8.0 | 0.00 | 0.00 | 0.00 | 78 | 1014.7 |
| 20260508131230 | 15 | 185 | 1.6 | 8.0 | 0.00 | 0.00 | 0.00 | 78 | 1014.7 |
| 20260508130643 | 11 | 1 | 0.0 | 0.0 | 0.00 | 0.00 | 0.00 | 93 | 1013.9 |
| 20260508125730 | 14 | 181 | 1.6 | 4.8 | 0.00 | 0.00 | 0.00 | 81 | 1014.7 |
| 20260508125230 | 14 | 119 | 1.6 | 6.4 | 0.00 | 0.00 | 0.00 | 82 | 1014.6 |
| 20260508124312 | 13 | 139 | 1.6 | 4.8 | 0.00 | 0.00 | 0.00 | 86 | 1014.8 |